Cloud_Cover
0 0 0 0 0 0 0 0 0 0 0 0 0 0 0 0 0 0 0 0 0 0 0 0 0 0 0 0 0 0 0 0 0 0 0 0 0 0 0 0 0 0 0 0 0 0 0 0 0 0 0 0 0 0 0 0 0 0 0 0 0 8 8 8 8 8 8 8 8 8 8 8 12 12 12 20 20 20 12 8 8 12 24 32 32 32 36 44 48 56 56 48 44 48 64 76 88 92 92 92 92 92 92
0 0 0 0 0 0 0 0 0 0 0 0 0 0 0 0 0 0 0 0 0 0 0 0 0 0 0 0 0 0 0 0 0 0 0 0 0 0 0 0 0 0 0 0 0 0 0 0 0 0 0 0 0 0 0 0 0 0 0 0 0 8 8 8 8 0 0 8 8 8 8 0 8 8 8 12 12 12 12 8 8 8 12 24 24 32 32 32 36 44 48 44 32 32 44 56 64 64 76 88 92 92 92
0 0 0 0 0 0 0 0 0 0 0 0 0 0 0 0 0 0 0 0 0 0 0 0 0 0 0 0 0 0 0 0 0 0 0 0 0 0 0 0 0 0 0 0 0 0 0 0 0 0 0 0 0 0 0 0 0 0 0 0 0 0 0 0 0 0 0 0 0 0 0 0 0 0 8 8 8 12 12 12 8 8 8 12 24 24 20 24 32 36 36 32 32 24 24 36 48 56 56 48 64 80 92
0 0 0 0 0 0 0 0 0 0 0 0 0 0 0 0 0 0 0 0 0 0 0 0 0 0 0 0 0 0 0 0 0 0 0 0 0 0 0 0 0 0 0 0 0 0 0 0 0 0 0 0 0 0 0 0 0 0 0 0 0 0 0 0 0 0 0 0 0 0 0 0 0 0 0 0 8 8 12 12 8 8 8 12 20 24 20 20 20 24 24 24 24 32 20 20 32 56 48 44 36 36 64
0 0 0 0 0 0 0 0 0 0 0 0 0 0 0 0 0 0 0 0 0 0 0 0 0 0 0 0 0 0 0 0 0 0 0 0 0 0 0 0 0 0 0 0 0 0 0 0 0 0 0 0 0 0 0 0 0 0 0 0 0 0 0 0 0 0 0 0 0 0 0 0 0 0 0 0 0 0 8 12 12 8 8 8 12 20 20 20 20 12 20 20 20 24 24 20 12 24 44 36 32 32 48
0 0 0 0 0 0 0 0 0 0 0 0 0 0 0 0 0 0 0 0 0 0 0 0 0 0 0 0 0 0 0 0 0 0 0 0 0 0 0 0 0 0 0 0 0 0 0 0 0 0 0 0 0 0 0 0 0 0 0 0 0 0 0 0 0 0 0 0 0 0 0 0 0 0 0 0 0 0 0 8 12 12 8 8 8 12 12 20 20 12 12 12 12 12 20 20 12 12 36 44 36 36 36
0 0 0 0 0 0 0 0 0 0 0 0 0 0 0 0 0 0 0 0 0 0 0 0 0 0 0 0 0 0 0 0 0 0 0 0 0 0 0 0 0 0 0 0 0 0 0 0 0 0 0 0 0 0 0 0 0 0 0 0 0 0 0 0 0 0 0 0 0 0 0 0 0 0 0 0 0 0 0 0 0 12 12 8 8 8 12 12 12 12 12 12 12 12 12 8 12 12 12 24 32 36 44
0 0 0 0 0 0 0 0 0 0 0 0 0 0 0 0 0 0 0 0 0 0 0 0 0 0 0 0 0 0 0 0 0 0 0 0 0 0 0 0 0 0 0 0 0 0 0 0 0 0 0 0 0 0 0 0 0 0 0 0 0 0 0 0 0 0 0 0 0 0 0 0 0 0 0 0 0 0 0 0 0 0 8 8 8 0 8 8 8 8 8 8 8 8 12 12 8 8 12 12 12 20 24
0 0 0 0 0 0 0 0 0 0 0 0 0 0 0 0 0 0 0 0 0 0 0 0 0 0 0 0 0 0 0 0 0 0 0 0 0 0 0 0 0 0 0 0 0 0 0 0 0 0 0 0 0 0 0 0 0 0 0 0 0 0 0 0 0 0 0 0 0 0 0 0 0 0 0 0 0 0 0 0 0 0 0 0 8 8 0 0 0 0 8 8 8 8 8 8 12 12 8 8 8 8 20
0 0 0 0 0 0 0 0 0 0 0 0 0 0 0 0 0 0 0 0 0 0 0 0 0 0 0 0 0 0 0 0 0 0 0 0 0 0 0 0 0 0 0 0 0 0 0 0 0 0 0 0 0 0 0 0 0 0 0 0 0 0 0 0 0 0 0 0 0 0 0 0 0 0 0 0 0 0 0 0 0 0 0 0 0 0 0 0 0 0 0 0 8 8 8 8 8 8 8 8 8 0 12
0 0 0 0 0 0 0 0 0 0 0 0 0 0 0 0 0 0 0 0 0 0 0 0 0 0 0 0 0 0 0 0 0 0 0 0 0 0 0 0 8 8 0 0 0 0 8 0 0 0 0 0 0 0 0 0 0 0 0 0 0 0 0 0 0 0 0 0 0 0 0 0 0 0 0 0 0 0 0 0 0 0 0 0 0 0 0 0 0 0 0 0 0 0 0 0 8 0 0 0 8 8 8
0 0 0 0 0 0 0 0 0 0 0 0 0 0 0 0 0 0 0 0 0 0 0 0 0 0 0 0 0 0 0 0 0 0 0 0 0 0 0 8 8 12 20 20 12 8 12 8 0 0 0 0 0 0 0 0 0 0 0 0 0 0 0 0 0 0 0 0 0 0 0 0 0 0 0 0 0 0 0 0 0 0 0 0 0 0 0 0 0 0 0 0 0 0 0 0 0 0 0 0 0 8 8
0 0 0 0 0 0 0 0 0 0 0 0 0 0 0 0 0 0 0 0 0 0 0 0 0 0 0 0 0 0 0 0 0 0 0 0 0 0 0 8 12 12 20 20 12 12 12 8 0 0 0 0 0 0 0 0 0 0 0 0 0 0 0 0 0 0 0 0 0 0 0 0 0 0 0 0 0 0 0 0 0 0 0 0 0 0 0 0 0 0 0 0 0 0 0 0 0 0 0 0 0 0 0
0 0 0 0 0 0 0 0 0 0 0 0 0 0 0 0 0 0 0 0 0 0 0 0 0 0 0 0 0 0 0 0 0 0 0 0 0 0 8 8 12 12 20 12 12 12 8 0 0 0 0 0 0 0 0 0 0 0 0 0 0 0 0 0 0 0 0 0 0 0 0 0 0 0 0 0 0 0 0 0 0 0 0 0 0 0 0 0 0 0 0 0 0 0 0 0 0 0 0 0 0 0 0
0 0 0 0 0 0 0 0 0 0 0 0 0 0 0 0 0 0 0 0 0 0 0 0 0 0 0 0 0 0 0 0 0 0 0 0 0 8 8 12 12 12 12 20 12 12 8 0 0 0 0 0 0 0 0 0 0 0 0 0 0 0 0 0 0 0 0 0 0 0 0 0 0 0 0 0 0 0 0 0 0 0 0 0 0 0 0 0 0 0 0 0 0 0 0 0 0 0 0 0 0 0 0
0 0 0 0 0 0 0 0 0 0 0 0 0 0 0 0 0 0 0 0 0 0 0 0 0 0 0 0 0 0 0 0 0 0 0 0 8 12 12 12 12 12 20 20 12 8 0 0 0 0 0 0 0 0 0 0 0 0 0 0 0 0 0 0 0 0 0 0 0 0 0 0 0 0 0 0 0 0 0 0 0 0 0 0 0 0 0 0 0 0 0 0 0 0 0 0 0 0 0 0 0 0 0
0 0 0 0 0 0 0 0 0 0 0 0 0 0 0 0 0 0 0 0 0 0 0 0 0 0 0 0 0 0 0 0 0 0 8 8 8 8 8 12 12 20 20 20 12 8 0 0 0 0 0 0 0 0 0 0 0 0 0 0 0 0 0 0 0 0 0 0 0 0 0 0 0 0 0 0 0 0 0 0 0 0 0 0 0 0 0 0 0 0 0 0 0 0 0 0 0 0 0 0 0 0 0
0 0 0 0 0 0 0 0 0 0 0 0 0 0 0 0 0 0 0 0 0 0 0 0 0 0 0 0 0 0 0 0 8 8 8 8 8 8 12 12 20 24 20 20 12 8 0 0 0 0 0 0 0 0 0 0 0 0 0 0 0 0 0 0 0 0 0 0 0 0 0 0 0 0 0 0 0 0 0 0 0 0 0 0 0 0 0 0 0 0 0 0 0 0 0 0 0 0 0 0 0 0 0
0 0 0 0 0 0 0 0 0 0 0 0 0 0 0 0 0 0 0 0 0 0 0 0 0 0 0 0 0 0 0 0 0 0 0 0 8 12 20 20 20 20 20 12 8 0 0 0 0 0 0 0 0 0 0 0 0 0 0 0 0 0 0 0 0 0 0 0 0 0 0 0 0 0 0 0 0 0 0 0 0 0 0 0 0 0 0 0 0 0 0 0 0 0 0 0 0 0 0 0 0 0 0
0 0 0 0 0 0 0 0 0 0 0 0 0 0 0 0 0 0 0 0 0 0 0 0 0 0 0 0 0 0 0 0 0 0 0 8 20 20 20 24 20 20 12 8 0 0 0 0 0 0 0 0 0 0 0 0 0 0 0 0 0 0 8 8 0 0 0 0 0 0 0 0 0 0 0 0 0 0 0 0 0 0 0 0 0 0 0 0 0 0 0 0 0 0 0 0 0 0 0 0 0 0 0
8 8 0 0 0 0 8 8 8 8 8 8 0 0 0 0 0 0 0 8 8 8 0 0 0 0 0 0 0 0 0 0 8 12 12 20 24 24 24 24 24 20 12 8 0 0 0 0 0 0 0 0 0 0 0 0 0 0 8 8 12 12 12 12 12 0 0 0 0 0 0 0 0 0 0 0 0 0 0 0 0 0 0 0 0 0 0 0 0 0 0 0 0 0 0 0 0 0 0 0 0 0 0
8 8 8 8 8 8 8 8 8 8 8 8 8 8 8 0 0 0 0 0 8 8 8 8 8 0 0 0 0 0 0 8 20 24 24 24 24 24 24 24 20 20 12 12 12 12 8 8 12 20 12 12 8 8 8 12 12 20 20 24 24 20 20 20 12 8 8 0 0 0 0 0 0 0 0 0 0 0 0 0 0 0 0 0 0 0 0 0 0 0 0 0 0 0 0 0 0 0 0 0 0 0 0
8 8 8 8 8 8 8 8 8 0 0 0 0 0 0 0 0 0 0 0 0 8 8 8 8 8 8 8 8 8 0 8 20 24 24 24 24 24 24 24 20 20 20 20 20 20 20 20 20 24 24 20 20 20 20 24 32 32 32 24 20 20 32 24 20 12 12 8 8 8 0 0 0 0 0 0 0 0 0 0 0 0 0 0 0 0 0 0 0 0 0 0 0 0 0 0 0 0 0 0 0 0 0
8 8 8 8 8 8 0 0 0 0 0 0 0 0 0 0 0 0 0 0 8 8 8 12 12 12 12 12 12 20 20 12 12 24 32 32 32 32 32 24 24 24 24 24 24 24 24 24 24 24 24 24 24 24 32 36 36 36 32 24 20 24 36 32 20 20 20 12 12 8 0 0 0 0 0 0 0 0 0 0 0 0 0 0 0 0 0 0 0 0 0 0 0 0 0 0 0 0 0 0 0 0 0
8 8 8 8 8 8 8 0 0 0 0 0 0 0 0 0 0 0 0 0 8 12 12 12 20 20 20 24 32 32 32 24 24 36 36 36 36 36 36 32 32 36 36 36 36 36 36 36 32 32 32 32 32 36 36 44 44 36 32 32 32 44 36 32 20 20 20 12 8 8 0 0 0 0 0 0 0 0 0 0 0 0 0 0 0 0 0 0 0 0 0 0 0 0 0 0 0 0 0 0 0 0 0
0 0 8 8 8 8 8 8 0 0 0 0 8 8 8 8 8 8 8 8 8 12 20 20 20 20 20 32 36 44 36 36 36 44 48 48 48 48 48 48 48 48 48 44 44 44 44 44 44 36 36 36 44 44 44 44 36 36 36 44 48 44 36 24 20 20 12 8 8 0 0 0 0 0 0 0 0 0 0 0 0 0 0 0 0 0 0 0 0 0 0 0 0 0 0 0 0 0 0 0 0 0 0
0 0 8 8 8 8 8 0 0 0 0 0 0 8 8 8 8 8 8 8 12 12 20 20 20 20 24 36 44 44 44 44 44 44 44 48 48 48 56 56 56 56 56 56 56 48 48 48 48 48 48 48 56 56 56 48 44 44 48 48 48 36 32 24 20 12 8 8 0 0 0 0 0 0 0 0 0 0 0 0 0 0 0 0 0 0 0 0 0 0 0 0 0 0 0 0 0 0 0 0 0 0 0
0 0 8 8 8 8 8 0 0 0 0 0 0 0 8 8 8 8 8 8 8 12 20 20 20 20 20 24 32 44 44 48 48 48 44 44 56 56 64 64 64 64 64 64 56 56 56 56 56 56 56 64 64 56 56 56 56 56 56 48 44 36 32 24 20 8 8 8 0 0 8 0 0 0 0 0 0 0 0 0 0 0 0 0 0 0 0 0 0 0 0 0 0 0 0 0 0 0 0 0 0 0 0
8 8 8 8 8 8 8 0 0 0 0 0 0 0 0 0 0 0 8 12 12 12 12 20 20 20 24 24 24 24 44 56 56 48 56 64 64 56 64 64 68 68 68 64 64 56 56 56 64 64 68 68 64 68 64 64 64 64 48 48 44 36 24 24 20 8 8 8 8 12 8 0 0 0 0 0 0 0 0 0 0 0 0 0 0 0 0 0 0 0 0 0 0 0 0 0 0 0 0 0 0 0 0
8 8 8 8 8 12 8 8 8 0 0 0 0 0 0 0 0 0 8 8 12 12 12 12 20 20 20 20 24 24 48 64 68 68 76 80 88 88 76 68 68 68 68 64 64 64 64 64 68 68 68 68 68 68 68 68 68 64 48 44 36 32 24 24 20 8 8 12 20 24 8 0 0 0 0 0 0 0 0 0 0 0 0 0 0 0 0 0 0 0 0 0 0 0 0 0 0 0 0 0 0 0 0
8 8 8 8 8 12 12 12 12 8 0 0 0 0 0 0 0 0 8 8 12 12 20 20 20 20 20 20 20 32 64 76 80 80 92 92 88 92 88 80 76 76 68 68 68 68 68 68 76 76 76 76 68 68 68 68 64 56 48 36 36 32 24 12 8 8 20 24 24 20 8 0 0 0 0 0 0 0 0 0 0 0 0 0 0 0 0 0 0 0 0 0 0 0 0 0 0 0 0 0 0 0 0
8 8 8 8 8 8 12 12 12 12 8 8 8 0 0 0 0 8 8 8 8 8 12 12 20 20 20 20 20 24 64 80 80 88 92 92 92 92 92 88 80 80 76 76 76 76 76 76 76 76 76 68 68 64 64 56 56 48 44 36 32 24 20 12 12 20 24 12 8 8 0 0 0 0 0 0 0 0 0 0 0 0 0 0 0 0 0 0 0 0 0 0 0 0 0 0 0 0 0 0 0 0 0
8 8 8 8 8 8 8 12 12 12 12 8 8 8 8 8 8 8 8 8 8 8 8 12 12 20 12 12 12 24 76 88 80 92 92 92 92 92 88 80 80 80 80 80 80 80 80 80 76 76 68 64 56 48 48 48 48 44 36 32 32 20 12 12 12 24 12 8 0 0 0 0 0 0 0 0 0 0 0 0 0 0 0 0 0 0 0 0 0 0 0 0 0 0 0 0 0 0 0 0 0 0 0
8 8 8 8 8 0 8 8 12 12 12 12 8 8 8 8 8 8 12 12 12 8 8 12 12 20 12 12 24 56 80 88 88 88 92 92 92 92 80 80 80 80 80 80 80 80 80 76 68 68 64 48 44 44 44 44 44 44 36 32 24 12 12 20 24 24 8 0 0 0 0 0 0 0 0 0 0 0 0 0 0 0 0 0 0 0 0 0 0 0 0 0 0 0 0 0 0 0 0 0 0 0 0
8 8 0 0 0 0 0 8 8 8 8 8 8 8 8 8 8 8 12 12 12 12 12 20 20 20 20 20 36 80 80 88 92 92 92 92 88 80 80 80 88 88 80 80 76 64 64 56 48 56 48 44 36 36 36 44 44 36 32 20 12 12 20 24 20 12 8 0 0 0 0 0 0 0 0 0 0 0 0 0 0 0 0 0 0 0 0 0 0 0 0 0 0 0 0 0 0 0 0 0 0 0 0
0 0 0 0 0 0 0 0 8 8 8 8 8 8 8 8 8 8 12 20 24 20 20 20 24 32 32 32 48 92 88 92 92 92 92 88 88 88 88 88 88 88 80 76 68 64 56 44 36 44 44 36 36 32 32 36 36 36 20 20 20 20 24 20 12 8 8 8 0 0 0 0 0 0 0 0 0 0 0 0 0 0 0 0 0 0 0 0 0 0 0 0 0 0 0 0 0 0 0 0 0 0 0
0 0 0 0 0 0 0 0 0 8 8 8 8 0 0 8 8 8 12 20 32 36 32 32 32 44 36 56 76 92 92 92 92 92 92 88 88 92 88 80 76 76 68 64 64 48 36 32 36 44 44 36 32 24 24 32 36 32 24 20 24 24 12 12 8 8 8 8 8 0 0 0 0 0 0 0 0 0 0 0 0 0 0 0 0 0 0 0 0 0 0 0 0 0 0 0 0 0 0 0 0 0 0
0 0 0 0 0 0 0 0 0 0 0 0 0 0 0 8 8 12 24 32 36 44 44 44 44 56 48 68 88 92 92 92 92 92 92 88 80 80 76 76 68 56 56 56 48 36 36 36 36 36 36 32 24 24 24 32 32 32 20 24 24 20 12 12 8 8 8 0 0 0 0 0 0 0 0 0 0 0 0 0 0 0 0 0 0 0 0 0 0 0 0 0 0 0 0 0 0 0 0 0 0 8 8
0 0 0 0 0 0 0 0 0 0 0 0 0 0 8 8 12 24 24 36 44 44 48 48 56 64 76 88 92 92 92 92 92 92 92 88 76 76 68 64 56 48 64 56 44 36 36 32 32 36 24 24 24 20 24 24 24 20 24 24 20 12 12 12 8 0 0 0 0 0 0 0 0 0 0 0 0 0 0 0 0 0 0 0 0 0 0 0 0 0 0 0 0 0 0 0 8 32 12 0 0 0 0
0 0 0 0 0 0 0 0 8 8 8 0 0 8 12 20 24 32 36 44 48 48 56 56 64 68 80 92 92 92 88 88 88 88 88 80 76 68 64 56 48 48 56 44 32 32 32 32 32 24 20 20 24 20 24 24 24 24 20 20 20 20 12 8 8 0 0 0 0 0 0 0 0 0 0 0 0 0 0 0 0 0 0 0 0 0 0 0 0 0 0 0 0 0 12 24 48 88 56 36 24 0 0
0 0 0 0 0 0 0 8 12 20 20 12 12 20 24 32 36 36 44 48 48 48 56 64 68 76 76 76 76 80 80 80 80 88 80 76 76 68 56 56 56 56 44 36 32 24 32 32 24 20 20 20 20 20 20 20 20 20 20 20 20 12 8 8 0 0 0 0 0 0 0 0 0 0 0 0 0 0 0 0 0 0 0 0 0 0 0 0 0 0 0 0 8 36 56 76 88 88 88 88 76 36 36
8 0 8 8 0 0 0 12 24 32 32 24 24 32 32 36 44 44 44 48 48 48 64 68 76 68 64 56 64 68 76 80 80 88 76 68 64 56 56 56 56 44 32 24 24 24 24 24 24 24 24 20 20 20 20 20 20 20 20 20 12 12 8 8 0 0 0 0 0 0 0 0 0 0 0 0 0 0 0 0 0 0 0 0 0 0 0 0 0 0 32 36 48 88 88 88 88 88 88 88 88 88 88
12 8 8 8 8 0 12 24 36 44 36 32 32 32 36 44 48 56 56 56 56 64 68 76 76 68 64 64 64 68 76 80 80 88 68 64 56 64 64 48 36 24 32 24 24 24 24 24 24 24 20 20 20 20 20 20 20 24 24 20 12 8 8 0 0 0 0 0 0 0 0 0 0 0 0 0 0 0 0 0 0 0 0 0 0 0 36 32 20 48 64 68 76 88 76 80 88 88 88 88 88 88 88
12 12 12 12 12 8 20 32 48 56 48 44 44 36 44 56 64 64 68 68 76 80 80 80 76 68 68 68 76 76 76 80 80 68 64 48 48 64 48 36 32 32 32 24 24 24 20 20 20 20 20 20 20 20 20 24 24 24 20 12 8 8 0 0 0 0 0 0 0 0 0 0 0 0 0 0 0 0 0 0 0 0 0 0 8 8 44 56 56 76 56 64 76 88 76 80 88 88 88 88 88 88 88
12 20 20 20 12 12 20 32 44 64 56 64 64 48 56 64 68 76 80 80 88 88 92 88 80 76 76 76 76 68 76 76 68 48 44 48 48 44 36 32 36 36 24 24 24 20 20 20 20 20 20 20 20 20 24 24 24 24 20 12 8 8 0 0 0 0 0 0 0 0 0 0 0 0 0 0 0 0 0 0 0 0 8 20 36 56 44 64 80 76 76 80 80 80 80 76 68 88 88 88 88 88 88
12 20 20 20 20 20 24 36 48 64 64 64 68 64 64 68 76 80 88 88 92 92 92 88 88 88 80 76 68 56 68 64 56 44 44 44 44 32 36 36 36 32 24 20 20 20 20 20 20 20 20 20 24 24 32 32 24 20 20 12 8 0 0 0 0 0 0 0 0 0 0 0 0 0 0 0 0 0 0 0 0 0 12 44 68 80 68 76 80 68 80 80 80 80 80 80 76 80 76 76 80 76 80
12 12 20 24 24 32 36 48 56 64 64 64 64 68 68 76 76 88 88 92 92 92 88 92 92 92 80 68 56 44 56 56 48 44 44 44 36 36 36 36 36 32 24 20 20 20 20 20 20 20 20 24 24 32 32 24 24 20 20 12 8 0 0 0 0 0 0 0 0 0 0 0 0 0 0 0 0 0 0 24 48 32 56 76 80 80 80 80 80 76 80 80 80 80 80 80 80 80 76 80 80 76 56
12 12 20 24 32 36 48 56 64 64 64 64 68 76 80 88 88 92 92 92 92 92 92 92 88 80 68 56 48 48 56 56 48 48 48 44 36 36 36 36 32 24 24 20 20 20 20 20 20 20 24 24 32 32 24 20 20 20 12 12 8 0 0 0 0 0 0 0 0 0 0 0 0 0 0 0 0 0 0 32 68 76 80 80 80 80 80 80 80 80 80 80 80 80 80 80 80 80 80 80 80 80 64
12 12 24 32 36 48 64 68 68 68 68 76 88 88 92 92 92 92 92 92 92 92 92 88 76 64 56 56 56 64 64 56 56 48 44 44 36 44 36 36 32 24 24 20 20 20 20 24 24 20 24 24 24 20 20 20 12 12 12 8 0 0 0 0 0 0 0 0 0 0 0 0 0 0 0 0 0 0 8 12 32 80 80 80 80 80 80 80 80 80 80 80 80 80 80 80 80 88 80 80 80 80 80
12 12 32 44 48 64 68 76 76 68 76 80 88 92 92 92 92 92 92 92 92 92 92 80 68 64 64 64 64 68 64 56 48 44 44 44 44 44 36 36 32 24 20 20 20 20 24 24 24 24 24 24 20 12 12 12 12 8 8 0 0 0 0 0 0 0 0 0 0 0 0 0 0 0 0 0 0 0 8 36 68 80 80 80 80 80 80 88 88 88 80 80 80 88 88 88 88 92 88 88 80 76 80
20 20 36 56 68 76 76 76 76 80 80 88 88 88 92 92 92 92 92 92 92 92 80 76 68 76 76 76 68 68 64 56 48 44 48 48 44 44 36 32 24 24 20 20 20 24 24 24 24 24 24 20 12 12 12 8 8 0 0 0 0 0 0 0 0 0 0 0 0 0 0 0 0 0 0 0 8 32 56 76 80 80 80 80 80 80 88 88 88 88 88 80 80 88 88 88 88 88 88 88 80 56 80
20 32 36 64 76 80 80 76 80 88 88 88 88 92 92 92 92 92 92 92 92 88 80 76 76 80 76 76 68 64 64 56 48 48 48 48 48 44 36 32 24 20 20 20 20 24 24 24 24 24 20 12 12 8 8 8 0 0 0 0 0 0 0 0 0 0 0 0 0 0 0 0 0 0 0 0 8 24 68 80 80 80 80 80 80 80 80 88 88 80 80 88 88 92 88 88 88 80 88 88 88 80 88
32 36 44 64 76 76 76 76 80 88 88 88 88 92 92 92 92 92 92 88 80 80 80 80 80 80 80 68 64 64 56 56 56 56 56 48 44 44 36 32 20 12 20 20 20 24 24 24 24 24 12 8 8 8 0 0 0 0 0 0 0 0 0 0 0 0 0 0 0 0 0 0 0 0 0 0 20 76 80 80 80 80 80 80 80 80 80 80 80 80 80 80 88 88 88 88 88 80 80 80 88 88 88
36 48 56 68 76 76 76 80 88 88 88 88 88 92 92 92 92 92 88 80 80 80 80 80 80 80 80 68 64 64 64 64 64 64 56 48 44 36 24 20 12 20 20 20 20 20 24 24 20 12 8 8 0 0 0 0 0 0 0 0 0 0 0 0 0 0 0 0 0 0 0 0 0 0 0 36 80 76 80 80 80 80 80 80 80 80 80 80 80 80 80 80 80 88 88 88 80 80 80 80 88 88 80
44 64 68 76 76 76 80 80 80 88 88 88 88 88 92 92 92 88 88 88 80 80 80 80 80 80 76 68 64 64 64 64 56 56 48 44 36 32 20 12 12 12 12 12 12 12 20 12 12 8 0 0 0 0 0 0 0 0 0 0 0 0 0 0 0 0 0 0 0 0 0 0 0 0 36 68 80 80 80 80 80 80 80 80 80 80 80 80 88 92 88 80 88 88 88 88 88 80 80 80 80 88 76
64 68 68 76 76 80 80 76 80 80 88 88 92 92 92 92 92 80 80 80 88 88 80 80 80 80 76 68 68 68 64 56 48 44 36 32 24 20 20 12 12 12 8 8 8 8 8 8 0 0 0 0 0 0 0 0 0 0 0 0 0 0 0 0 0 0 0 0 0 0 0 0 0 0 44 68 80 80 80 80 80 80 68 76 80 80 80 88 92 92 88 80 88 88 88 88 88 80 80 88 88 88 88
68 68 68 76 76 80 80 80 76 80 80 88 92 92 92 92 92 80 80 80 80 80 88 80 80 80 68 68 64 64 56 48 44 36 32 24 20 12 12 12 8 8 8 0 0 0 0 0 0 0 0 0 0 0 0 0 0 0 0 0 0 0 0 0 0 0 0 0 0 0 0 0 8 20 64 80 80 80 80 80 80 80 80 80 80 88 88 92 92 92 88 88 88 88 88 88 88 88 80 80 88 88 88
68 76 68 76 80 88 88 80 80 80 88 92 92 92 92 92 88 80 80 88 88 80 88 80 76 76 68 64 56 56 48 44 36 32 24 20 20 20 12 8 8 0 0 0 0 0 0 0 0 0 0 0 0 0 0 0 0 0 0 0 0 0 0 0 0 0 0 0 0 0 8 32 64 76 76 80 80 80 80 80 80 80 88 88 88 88 92 92 92 88 88 88 88 88 88 88 88 88 88 80 80 88 88
68 76 76 80 88 88 92 88 88 88 92 92 92 92 92 88 76 76 80 80 88 80 80 76 68 64 56 56 56 56 48 44 36 24 20 20 20 20 12 8 0 0 0 0 0 0 0 0 0 0 0 0 0 0 0 0 0 0 0 0 0 0 0 0 0 0 0 0 0 12 64 76 76 76 80 80 80 80 80 80 80 80 80 88 88 92 92 92 92 92 88 88 88 88 88 88 80 88 88 88 80 80 88